Regional Weather Roundup
Issued by NWS

Home | Current Version | Previous Version | Text Only | Print | Product List | Glossary Off
Versions: 1 2 3 4 5 6 7 8 9 10 11 12 13 14 15 16 17 18 19 20 21 22 23 24 25 26 27

000
ASUS45 KBOU 220807
RWRCO

WEATHER ROUNDUP FOR COLORADO
NATIONAL WEATHER SERVICE DENVER/BOULDER CO
200 AM MDT TUE AUG 22 2017

NOTE: "FAIR" INDICATES FEW OR NO CLOUDS BELOW 12000 FEET WITH NO
SIGNIFICANT WEATHER AND/OR OBSTRUCTIONS TO VISIBILITY.

COZ001>005-013-030-031-220900-
...NORTHWEST COLORADO...

CITY           SKY/WX    TMP DP  RH WIND       PRES   REMARKS
CRAIG          FAIR      46  36  68 CALM      30.29R
HAYDEN         FAIR      56  34  43 E12       30.33R
MEEKER         FAIR      52  36  54 NE5       30.31R
RABBIT EARS PA FAIR      50  37  62 SE6       30.60S
STEAMBOAT SPGS FAIR      52  36  55 CALM      30.34S
WALDEN         FAIR      50  37  62 S5        30.46R
$$

COZ006>008-011-220900-
...WEST CENTRAL VALLEYS...

CITY           SKY/WX    TMP DP  RH WIND       PRES   REMARKS
GRAND JUNCTION FAIR      74  44  34 E14       30.18S
MONTROSE       FAIR      62  44  51 SE5       30.30R
EAGLE          FAIR      55  39  54 CALM      30.38R
RIFLE          FAIR      62  39  42 CALM      30.26R
DELTA          FAIR      67  43  42 SE3       30.26R
NUCLA          FAIR      64  41  42 E8        30.33R
$$

COZ017>023-064>068-220900-
...SOUTHWEST COLORADO...

CITY           SKY/WX    TMP DP  RH WIND       PRES   REMARKS
DURANGO        FAIR      60  47  61 NE7       30.36F
CORTEZ         FAIR      64  53  67 CALM      30.30R
PAGOSA SPRINGS MOCLDY    55  45  69 CALM      30.44S
TELLURIDE      MOCLDY    58  38  48 S3        30.53R
WOLF CREEK PAS MOCLDY    41  37  87 N7        30.75S
$$

COZ009-010-012-014-032>034-037-058>063-220900-
...CENTRAL COLORADO...

CITY           SKY/WX    TMP DP  RH WIND       PRES   REMARKS
ASPEN          FAIR      59  40  49 SE5       30.42S
BUENA VISTA    FAIR      49  43  81 NW5       30.49S
COPPER MTN     FAIR      50  32  50 S15       30.73S
BERTHOUD PASS  FAIR      41  36  81 S10       30.76S
COTTONWOOD PAS FAIR      55  36  47 E5        30.60S
GUNNISON       FAIR      50  43  77 N6        30.47S
KREMMLING      FAIR      52  39  62 CALM      30.42S
LEADVILLE      FAIR      41  36  82 VRB3      30.59F
SALIDA         FAIR      52  47  83 NW5       30.54S
SUNLIGHT       FAIR      50  32  50 S5        30.65F
WILKERSON PASS FAIR      48  34  57 CALM      30.71S
$$

COZ069>075-220900-
...SAN LUIS VALLEY/SANGRE DE CRISTO MOUNTAINS...

CITY           SKY/WX    TMP DP  RH WIND       PRES   REMARKS
ALAMOSA        MOCLDY    51  45  79 N3        30.44R
DEL NORTE      MOCLDY    52  47  84 W9        30.48R
LA VETA PASS   NOT AVBL
SAGUACHE         N/A     52  48  87 NW9       30.47R
$$

COZ035-036-038>040-220900-
...NORTHERN COLORADO FRONT RANGE...

CITY           SKY/WX    TMP DP  RH WIND       PRES   REMARKS
DENVER INTL AP FAIR      60  49  66 E3        30.32R
DMNS CITY PARK   N/A     64  51  63 NE8       30.31S
AURORA         NOT AVBL
FRONT RANGE AP FAIR      61  52  72 SE3       30.33R
ERIE MUNI ARPT MOCLDY    60  50  69 CALM      30.36R
BOULDER MUN AP MOCLDY    63  48  59 CALM      30.31R
CENTENNIAL     FAIR      62  52  69 CALM      30.33S
BROOMFIELD     FAIR      64  48  55 N6        30.34R
FORT COLLINS   FAIR      63  48  58 NE5       30.31R
LONGMONT       CLOUDY    64  51  62 CALM      30.32R
$$

COZ041-046-047-076>085-087-088-220900-
...PIKES PEAK/PALMER DIVIDE AND SOUTHERN FOOTHILLS...

CITY           SKY/WX    TMP DP  RH WIND       PRES   REMARKS
COLO. SPRINGS  MOCLDY    62  53  72 CALM      30.37R
A. F. ACADEMY  FAIR      55  46  72 N7        30.38R
SCHRIEVER AFB  FAIR      61  52  72 MISG      30.36S
CHEYENNE MTN   MOCLDY    63  50  63 S5        30.36R
ELLICOTT       FAIR     N/A N/A N/A NE3       30.34R
FALCON         FAIR      58  51  77 W7        30.41S
FORT CARSON    NOT AVBL
LIMON          FAIR      60  59  96 E8        30.31R
MONUMENT HILL  FAIR      52  48  87 S5        30.41F
CANON CITY     CLEAR     66  52  59 W12G21    30.30S
WALSENBURG     FAIR      61  54  77 W9        30.33S
TRINIDAD       FAIR      64  49  57 W10       30.30S
$$

COZ042>045-048>051-090-091-220900-
...NORTHEAST COLORADO...

CITY           SKY/WX    TMP DP  RH WIND       PRES   REMARKS
GREELEY ARPT   FAIR      56  51  84 NW3       30.30R
AKRON          FAIR      58  56  93 E8        30.27R
BURLINGTON     MOCLDY    67  64  90 NE9       30.23R
WRAY           NOT AVBL
YUMA           NOT AVBL
STERLING       FAIR      55  52  88 NE3       30.24R
HOLYOKE        FAIR      61  59  94 NE6       30.24S
FORT MORGAN    FAIR      57  51  81 N6        30.28S
$$

COZ086-089-092>099-220900-
...SOUTHEAST COLORADO...

CITY           SKY/WX    TMP DP  RH WIND       PRES   REMARKS
PUEBLO         FAIR      65  51  60 E3        30.25R
LA JUNTA       CLOUDY    70  56  61 N9        30.22R
LAMAR          MOCLDY    71  66  84 NE9       30.15R
SPRINGFIELD      N/A     64  62  93 NW8       30.15S
$$




USA.gov is the U.S. government's official web portal to all federal, state and local government web resources and services.